Theta_e
319 317 316 314 298 301 294 292 292 290 291 294 294 294 291 289 295 294 293 294 295 296 300 301 317 333 339 341 341 341 342 341 341 342 342 342 341 340 340 340 338 337 336 337 338 336 334 334 334
316 318 314 307 293 289 284 290 288 288 289 295 292 291 289 285 289 289 290 294 296 297 299 301 319 337 340 339 340 340 340 340 340 339 339 338 337 337 337 337 336 334 331 333 333 333 332 333 334
315 318 305 298 292 286 285 285 289 291 291 291 290 288 286 284 289 289 293 296 296 296 298 302 318 335 337 337 337 337 336 336 336 336 335 334 334 333 334 334 332 331 332 332 332 330 331 331 334
309 304 303 290 283 283 285 286 288 290 292 291 289 287 287 290 290 292 294 296 295 296 298 303 315 324 333 333 333 333 332 332 332 331 331 330 329 329 329 329 329 329 329 329 328 329 330 330 330
308 301 290 284 282 284 285 287 289 288 288 288 289 286 285 290 293 294 294 295 293 295 298 300 311 316 324 328 329 329 328 327 327 327 326 326 325 325 325 326 325 325 327 327 326 328 330 330 328
300 301 289 284 283 284 284 285 287 288 288 287 288 287 287 291 291 293 294 294 295 294 297 299 303 308 314 319 321 323 323 323 322 322 322 321 321 322 322 321 322 322 323 324 324 326 327 326 324
297 293 285 286 284 284 283 286 284 284 286 285 286 286 286 289 291 293 294 295 295 294 296 297 299 300 304 310 312 314 315 315 315 314 314 313 314 315 316 317 318 319 320 321 322 324 323 322 320
294 292 286 288 285 283 283 285 285 284 285 288 284 282 284 288 291 293 294 295 294 293 294 296 297 298 298 299 304 306 308 307 306 305 306 306 307 307 307 309 313 315 314 316 319 320 321 319 317
296 285 282 282 285 281 285 283 286 286 285 285 286 281 286 289 291 291 292 293 293 293 293 295 295 296 296 297 297 299 302 301 300 300 302 300 297 298 299 305 308 311 310 311 312 316 316 315 311
288 282 282 286 286 284 284 284 278 281 279 280 282 285 284 286 289 288 289 290 291 290 291 293 294 294 295 295 295 295 295 295 295 296 296 296 296 298 298 302 302 304 307 308 308 307 306 302 300
286 283 286 286 287 286 283 282 280 281 279 278 280 281 286 284 286 287 288 289 290 291 291 291 293 293 293 294 294 294 294 293 293 294 295 296 296 297 296 294 292 292 298 296 296 295 294 294 294
283 288 289 288 290 287 284 281 274 279 279 284 283 285 285 285 285 286 286 288 289 290 290 291 291 291 292 292 291 291 292 293 292 294 294 293 294 292 293 293 293 292 291 293 291 291 292 292 290
285 285 288 288 288 286 285 278 279 280 281 284 283 284 284 283 285 286 288 290 290 289 290 290 290 290 291 291 291 291 290 291 291 293 293 293 294 292 293 290 289 288 288 290 291 289 289 290 289
287 287 286 288 288 287 283 278 282 283 286 284 285 285 286 286 287 288 288 288 290 290 290 291 290 290 290 291 290 290 290 290 290 290 290 292 291 290 292 289 288 290 290 290 289 288 288 289 289
289 285 286 287 289 288 288 283 280 286 286 285 286 286 287 287 288 287 289 289 291 291 290 291 290 290 290 289 290 290 288 289 288 289 291 290 291 292 291 292 290 290 290 289 289 289 288 287 289
287 286 279 286 289 288 286 279 290 288 285 285 286 287 288 288 288 289 289 289 290 290 290 291 291 290 290 289 288 288 288 290 288 288 289 291 292 292 292 291 289 290 290 289 287 287 287 286 286
281 276 278 281 285 285 283 278 287 287 286 286 287 287 288 287 289 289 289 289 290 290 291 291 290 289 289 289 289 288 289 289 288 289 290 291 292 292 290 291 290 288 287 287 287 286 286 285 285
276 276 279 278 281 282 280 280 283 286 286 285 286 287 287 288 289 290 290 290 290 289 290 289 289 288 288 287 287 288 288 287 288 288 290 291 291 289 288 287 287 287 286 286 286 284 285 284 283
281 279 277 281 283 282 280 280 283 284 285 284 285 285 286 288 290 291 291 290 288 287 287 287 287 287 286 286 285 286 286 288 287 287 288 289 289 289 288 287 287 286 285 285 285 284 283 283 283
280 278 277 280 284 282 281 281 283 284 285 285 286 286 286 287 288 289 290 289 288 288 287 287 287 287 287 287 287 288 288 287 288 288 288 289 288 289 288 286 285 285 284 284 284 283 282 281 282
279 277 277 277 281 283 280 281 282 283 285 287 287 288 288 287 288 288 289 288 288 287 287 288 288 287 287 288 288 287 287 286 286 287 287 288 289 289 288 286 285 285 284 283 283 282 282 280 280
277 280 280 280 278 274 280 276 280 281 282 286 287 287 288 288 288 288 289 289 288 289 289 289 289 288 288 288 287 286 286 284 284 285 286 287 288 287 287 287 286 285 285 283 283 284 281 281 279
279 281 280 280 278 277 279 274 282 280 282 283 284 288 288 289 288 287 288 289 289 290 289 289 289 289 289 288 287 287 286 286 284 285 286 286 287 287 287 287 286 285 285 284 283 282 282 281 280
283 280 280 279 278 273 276 276 279 282 282 285 285 285 289 290 289 288 287 287 287 288 290 289 289 289 289 288 288 287 286 286 285 284 285 286 287 287 287 287 286 286 285 284 284 282 282 281 281
280 278 271 273 273 274 275 273 280 284 287 286 286 286 286 289 290 287 286 284 285 285 286 288 289 289 291 290 289 288 287 286 286 285 285 285 286 286 287 287 286 286 286 286 285 283 282 282 281
277 277 273 267 270 273 276 272 282 285 286 286 286 286 286 286 290 289 287 286 284 285 286 286 288 288 290 290 290 289 288 288 287 287 287 286 287 287 288 287 287 287 287 286 286 285 284 283 283
277 276 276 267 260 266 273 278 285 283 285 285 285 285 284 285 286 289 290 287 286 285 286 287 287 287 288 288 289 289 288 287 288 288 287 287 288 288 288 287 287 287 287 287 286 285 284 285 284
276 277 273 271 266 264 273 275 278 282 284 284 284 283 285 286 287 287 288 289 288 288 287 287 288 288 289 288 288 288 288 288 288 288 287 288 288 288 288 287 287 287 287 286 286 285 285 284 284
273 274 274 274 274 267 266 274 281 282 284 284 284 285 285 286 287 287 288 288 289 289 287 287 287 287 288 289 288 288 288 288 288 287 288 288 288 288 288 288 287 287 286 286 286 285 285 284 284
276 276 276 269 269 272 271 274 287 285 283 283 284 286 290 286 288 288 288 289 288 287 287 287 287 287 288 289 289 288 288 288 287 287 288 288 288 288 288 288 287 287 287 287 286 285 285 284 284
Wind_Speed
10 10 4 3 4 2 2 6 4 9 6 7 8 5 5 5 5 1 7 11 16 13 14 17 27 28 10 16 17 18 19 20 19 20 21 21 21 20 20 20 19 19 16 15 18 16 15 14 14
4 6 4 2 4 3 3 7 8 6 3 6 6 6 6 4 4 0 4 14 16 13 12 15 26 4 16 18 19 21 21 22 22 21 21 20 19 18 18 17 18 17 14 12 15 14 14 15 15
3 3 4 4 2 3 4 4 7 5 7 6 3 7 3 3 3 3 8 13 14 10 11 14 24 19 20 21 21 22 22 22 21 20 19 19 19 18 18 19 17 14 14 14 14 14 14 15 17
2 4 5 6 6 3 2 3 6 2 4 6 3 5 5 3 2 3 10 12 9 9 10 14 21 25 20 21 20 20 21 21 19 19 20 19 20 18 17 14 14 14 13 13 13 13 13 14 17
4 3 6 6 3 3 2 3 6 3 1 2 4 2 2 2 2 3 7 10 11 8 8 10 18 21 21 20 20 20 19 18 19 21 18 17 15 15 15 14 13 12 12 12 13 13 15 17 17
5 3 5 4 3 3 2 5 4 3 2 2 3 4 3 2 2 5 5 10 9 8 8 8 12 15 17 18 19 19 18 19 19 17 16 16 15 15 14 13 12 11 12 12 13 13 16 17 19
7 5 5 5 4 2 2 2 2 4 4 1 4 5 3 4 1 5 4 9 3 7 7 7 6 8 12 15 17 15 17 17 17 16 15 14 15 15 14 13 12 11 12 13 13 14 17 19 20
4 5 5 4 3 3 2 1 3 3 2 1 3 5 3 2 3 3 3 6 3 3 6 5 4 4 4 6 10 10 17 14 12 10 12 14 14 14 13 11 12 12 10 13 14 14 14 16 18
4 7 5 7 5 3 2 1 3 3 5 2 3 3 2 3 3 1 2 1 5 3 4 2 2 3 2 3 3 6 13 10 8 7 10 8 4 5 6 10 12 12 11 11 12 15 16 17 20
8 5 3 2 2 2 1 3 2 3 3 3 4 3 2 1 3 1 2 2 1 1 2 1 2 1 3 2 1 3 5 3 3 4 3 2 4 4 5 5 9 9 8 9 10 10 11 9 6
3 9 9 4 6 5 4 3 2 2 6 7 7 3 3 1 1 4 3 4 4 5 1 1 2 2 3 2 1 0 2 1 1 3 3 2 3 4 3 3 2 3 6 3 4 5 4 6 6
7 2 4 11 10 8 5 4 4 8 7 2 4 3 2 5 5 5 5 4 4 7 2 2 2 3 3 2 1 0 2 2 1 2 4 3 1 4 3 2 3 3 3 3 4 3 5 6 7
6 3 2 4 1 2 8 6 6 9 8 4 5 6 7 7 8 7 7 7 7 7 4 2 3 3 3 2 2 1 1 1 1 1 4 3 1 3 3 3 3 2 2 3 3 4 4 5 6
3 5 6 8 6 5 4 4 6 6 6 6 7 9 9 9 9 8 8 9 9 7 5 4 3 4 2 2 3 3 2 2 2 1 2 3 3 3 3 4 3 2 2 2 3 4 5 4 5
5 3 2 4 4 5 6 4 8 5 11 8 8 8 9 10 8 10 9 9 9 7 5 6 5 3 3 3 2 2 1 1 2 2 2 3 3 3 4 2 2 2 3 3 2 3 3 4 4
3 3 4 3 5 3 3 8 3 10 11 10 11 10 10 10 12 10 9 8 6 5 6 7 5 5 4 3 2 2 1 1 1 0 2 2 3 3 3 2 2 2 3 4 3 2 3 3 4
7 3 6 4 3 3 2 8 4 9 9 8 10 10 11 10 11 11 10 9 7 6 6 8 6 4 2 2 2 1 1 1 1 1 1 2 3 4 3 2 2 3 3 3 3 2 3 2 3
7 7 6 6 1 3 6 15 9 12 11 12 9 9 11 13 16 13 14 12 10 8 8 7 5 4 3 0 1 2 2 3 2 2 2 2 1 2 3 2 2 3 3 3 2 2 3 3 2
5 5 6 5 2 8 5 11 14 10 11 9 10 10 9 10 8 11 14 15 14 12 11 9 7 6 4 2 1 2 3 3 3 3 4 3 2 2 2 1 1 2 3 3 3 2 3 2 1
3 3 6 8 5 5 7 16 7 8 9 10 11 10 10 8 9 10 10 11 13 14 13 12 12 10 8 6 4 4 3 4 3 3 4 5 5 4 3 3 2 2 2 1 1 1 1 0 1
3 4 4 5 12 3 9 7 5 2 3 6 8 7 8 11 11 13 16 16 13 13 14 14 13 13 11 12 7 6 3 2 3 4 4 5 6 6 5 5 5 5 3 4 4 4 4 3 1
5 1 3 7 6 2 7 6 6 3 5 6 9 10 11 9 7 9 14 15 16 17 14 14 13 13 12 12 9 11 8 7 4 6 5 6 7 7 6 6 6 5 4 5 4 3 3 3 4
6 3 3 1 3 4 8 5 8 5 6 6 9 11 11 10 10 11 14 16 13 14 14 15 15 15 15 14 14 10 12 8 5 4 7 8 8 9 9 8 8 6 5 5 6 4 5 3 4
6 4 2 1 2 5 5 5 9 5 5 7 4 6 10 10 9 9 8 9 11 11 13 13 16 17 17 16 17 18 16 12 9 8 9 8 8 8 11 10 8 8 7 7 6 7 7 6 4
3 5 6 8 8 5 2 4 11 10 8 5 8 9 7 7 7 8 8 8 7 10 12 11 13 15 15 16 17 19 19 16 17 14 10 10 9 8 14 14 12 10 10 9 7 7 7 7 5
3 2 6 4 2 6 3 6 6 2 7 6 5 5 6 4 5 7 9 9 9 11 12 14 15 16 16 17 19 16 17 12 13 14 12 11 13 12 12 14 14 14 12 11 10 7 8 7 8
3 2 2 7 2 5 5 9 9 3 7 8 9 8 7 6 5 9 9 10 11 11 14 15 16 17 18 18 15 17 15 17 15 16 14 12 13 12 13 15 16 15 14 14 12 10 11 9 10
2 1 3 4 2 4 7 6 8 9 7 7 9 6 7 7 7 8 8 10 12 14 14 14 17 19 17 16 16 14 16 17 16 15 17 17 15 14 15 16 17 16 16 15 14 12 12 12 10
2 1 4 3 5 5 3 8 7 5 7 10 7 8 8 9 9 9 9 9 11 11 9 12 13 15 13 14 15 15 16 17 16 16 18 18 17 16 18 17 17 18 18 17 16 16 15 15 14
2 4 5 7 7 3 5 9 17 15 6 7 9 12 16 5 8 7 8 9 8 8 8 8 8 8 12 14 13 15 15 16 16 18 19 19 19 18 18 19 17 19 20 18 19 19 17 17 17
Wind_Direction
323 305 294 45 93 178 187 38 34 16 42 348 18 17 74 26 61 204 328 3 338 330 324 322 326 330 125 95 89 88 86 89 87 83 78 74 72 71 66 64 67 65 59 66 73 68 68 68 72
306 313 27 54 113 165 81 36 47 45 325 343 35 337 33 77 56 58 349 335 328 321 328 329 345 50 93 91 87 83 81 79 78 78 73 72 71 67 69 68 68 65 68 67 71 72 76 76 69
280 165 81 111 73 107 108 34 34 79 30 32 87 41 11 1 67 353 343 321 316 333 337 335 358 31 82 84 81 80 79 75 73 73 72 68 66 66 65 62 68 74 72 76 80 80 81 85 81
330 23 32 68 65 46 80 38 350 1 79 47 308 75 98 112 319 307 322 316 323 349 351 347 7 18 58 76 77 79 79 77 76 76 70 70 65 65 68 70 71 71 74 78 82 82 87 93 91
38 59 71 79 108 142 45 4 333 59 52 3 333 75 75 100 8 351 344 318 344 349 7 0 9 22 33 64 74 78 79 82 76 71 72 78 79 78 78 78 77 78 77 82 86 89 87 88 89
51 51 58 91 138 165 112 343 329 37 315 319 117 139 206 128 354 347 344 326 345 348 15 11 9 21 33 50 67 76 78 79 80 82 82 81 79 77 78 80 82 87 84 87 92 95 93 94 93
100 72 79 111 137 134 91 306 39 344 286 271 347 193 174 205 335 329 340 318 43 350 14 8 7 20 31 43 60 77 82 83 86 86 86 85 83 77 73 75 80 82 88 89 96 101 102 97 93
54 79 99 103 195 114 59 39 36 290 282 214 149 230 198 127 332 326 312 332 350 56 11 13 8 19 47 34 51 78 88 86 84 83 94 89 88 85 79 68 77 87 90 90 98 102 104 105 99
360 58 54 8 3 357 94 258 176 231 245 238 218 206 314 336 308 282 260 41 332 53 53 74 344 359 15 98 69 51 87 89 75 61 96 109 115 99 82 87 86 86 93 105 110 106 103 101 103
74 87 123 229 285 243 133 289 322 321 252 264 285 234 279 34 335 263 273 215 207 12 137 182 96 88 340 96 68 66 84 91 111 90 71 124 123 124 110 83 81 79 74 96 94 95 85 87 102
75 144 169 193 182 162 185 222 230 252 261 221 213 222 203 294 126 271 240 274 276 267 158 130 144 170 169 169 87 129 113 117 88 95 102 96 118 113 119 84 65 69 72 61 64 63 60 78 99
80 351 192 177 164 168 194 151 228 200 230 185 225 224 214 202 211 222 242 248 268 299 288 165 144 183 202 169 147 255 141 166 132 130 122 118 129 119 110 128 105 94 108 98 78 58 76 74 87
91 158 336 356 37 190 148 204 219 240 239 216 237 239 230 232 221 224 223 230 224 238 280 272 228 197 215 157 188 147 211 140 131 84 59 114 117 105 120 103 88 83 96 117 118 97 80 85 84
108 151 170 191 199 181 217 245 153 265 168 206 225 249 250 244 228 225 226 233 230 231 238 277 230 220 214 210 196 213 190 149 120 44 86 85 116 104 92 112 103 96 96 119 128 124 112 102 103
144 78 233 233 207 214 191 211 238 180 170 193 221 235 245 241 239 225 229 235 237 239 220 226 215 247 216 221 240 239 192 181 121 148 125 92 76 94 112 102 113 113 101 87 92 93 100 98 107
221 194 5 192 173 196 102 280 312 159 175 202 208 212 219 224 226 222 211 219 216 232 242 254 249 203 217 226 229 239 213 195 163 101 88 68 98 109 115 138 120 79 83 93 77 90 92 122 117
7 325 348 348 197 141 175 271 202 168 191 223 217 209 209 213 210 205 200 197 207 211 229 253 273 297 266 272 308 309 235 248 174 229 128 179 148 153 148 156 130 112 101 104 131 98 136 154 147
324 346 328 303 311 258 238 259 261 197 191 207 221 231 212 206 207 194 190 187 190 200 211 223 231 235 237 157 13 321 294 276 264 254 232 221 215 153 154 174 151 124 110 98 97 114 76 136 160
272 276 298 305 19 350 260 279 267 199 207 218 217 214 219 231 229 202 191 183 181 185 190 196 196 206 175 152 227 277 259 251 257 250 245 229 246 231 180 182 123 118 134 159 164 121 125 60 117
17 334 337 284 314 344 309 302 282 186 222 214 210 218 222 209 197 191 192 192 195 193 198 197 199 191 188 185 189 208 196 217 221 219 220 205 208 221 204 202 213 184 129 124 180 162 126 75 260
47 55 332 260 318 294 321 303 326 21 182 208 224 223 224 215 210 187 186 189 193 205 203 203 202 201 200 198 200 211 225 210 181 219 213 211 210 215 220 207 198 198 177 203 195 186 170 164 268
338 72 311 315 10 325 19 281 322 341 270 230 234 228 228 228 220 199 197 196 199 201 196 204 205 206 201 197 208 212 217 212 200 180 183 202 208 213 214 218 213 214 198 205 206 195 184 141 185
260 350 281 292 7 13 343 56 268 6 320 284 247 235 236 224 211 207 201 205 207 200 202 201 202 207 207 201 205 213 218 217 186 190 205 211 209 199 200 198 200 208 209 216 208 204 195 190 168
304 330 109 6 72 39 280 86 296 332 294 325 320 250 231 224 221 219 211 197 202 200 202 205 208 212 207 205 206 208 212 216 215 209 201 201 205 213 211 206 206 205 204 198 199 205 204 207 201
3 25 351 3 10 229 11 31 245 290 294 287 328 339 279 229 224 225 215 213 207 200 204 207 211 221 218 216 216 215 218 211 212 209 213 211 209 204 208 199 202 206 212 205 196 199 203 201 196
9 91 138 260 272 279 343 251 256 272 327 350 356 347 15 277 255 236 227 215 214 211 207 208 213 225 216 217 222 222 222 221 224 220 216 216 216 217 206 207 209 207 200 204 203 208 212 209 213
306 62 129 101 25 45 265 285 321 6 21 23 17 16 327 316 262 241 234 223 215 212 214 209 217 224 223 224 224 224 224 227 229 230 225 225 222 216 206 205 209 209 209 207 201 206 213 212 215
32 312 61 13 20 305 291 290 240 329 321 358 345 337 323 355 297 274 254 239 232 228 220 210 218 228 230 230 229 230 230 231 231 229 229 231 231 220 213 208 209 209 210 209 205 210 211 207 216
49 35 31 113 141 184 274 258 218 256 274 311 306 305 340 327 324 309 288 265 245 240 222 222 225 233 237 234 231 232 233 231 229 230 232 231 231 220 220 214 211 210 209 208 208 213 211 209 216
202 161 140 116 275 225 209 263 261 281 283 315 318 311 328 270 290 289 294 277 279 256 254 241 244 234 237 239 234 233 235 236 234 232 232 231 231 228 223 224 216 212 211 206 208 211 211 211 214